This demonstration page uses our WeatherBlox Daily Observations layout. Learn more.

Left ArrowRight Arrow

36.17497, -115.13722

Hourly Observations for January 13, 2018

Temp ( °F °C ) Dew Point ( °F °C ) Humidity (%) Winds ( mph kmh ) Pressure ( in mb ) Visibility ( mi km ) Precip ( " mm )
12:53 am 00:53 Clear 48 8.9 38 3.3 68 68 NNE 7 11 30.36 1028 10 16 N/A
1:53 am 01:53 Clear 49 9.4 35 1.7 59 59 N 5 7 30.36 1028 10 16 N/A
2:53 am 02:53 Clear 48 8.9 35 1.7 61 61 NNE 7 11 30.37 1028 10 16 N/A
3:53 am 03:53 Clear 47 8.3 34 1.1 61 61 NNW 3 6 30.36 1028 10 16 N/A
4:53 am 04:53 Clear 45 7.2 34 1.1 66 66 NNW 3 6 30.37 1029 10 16 N/A
5:53 am 05:53 Clear 46 7.8 33 0.6 61 61 N N/A 30.39 1029 10 16 N/A
6:53 am 06:53 Sunny 46 7.8 32 undefined 58 58 NW 9 15 30.40 1030 10 16 N/A
7:53 am 07:53 Sunny 48 8.9 34 1.1 58 58 NW 8 13 30.42 1030 10 16 N/A
8:53 am 08:53 Sunny 55 12.8 33 0.6 44 44 NNE 6 9 30.42 1030 10 16 N/A
9:53 am 09:53 Sunny 57 13.9 32 undefined 39 39 NNW 7 11 30.42 1030 10 16 N/A
10:53 am 10:53 Sunny 59 15 32 undefined 36 36 N N/A 30.41 1030 10 16 N/A
11:53 am 11:53 Sunny 62 16.7 30 -1.1 30 30 N N/A 30.37 1029 10 16 N/A
12:53 pm 12:53 Sunny 63 17.2 31 -0.6 30 30 E 3 6 30.35 1028 10 16 N/A
1:53 pm 13:53 Sunny 64 17.8 30 -1.1 28 28 SSE 5 7 30.33 1027 10 16 N/A
2:53 pm 14:53 Sunny 64 17.8 32 undefined 30 30 SE 6 9 30.33 1027 10 16 N/A
3:53 pm 15:53 Sunny 64 17.8 34 1.1 33 33 SE 5 7 30.32 1027 10 16 N/A
4:53 pm 16:53 Clear 61 16.1 36 2.2 39 39 N N/A 30.32 1027 10 16 N/A
5:53 pm 17:53 Clear 58 14.4 33 0.6 39 39 WNW 3 6 30.33 1027 10 16 N/A
6:53 pm 18:53 Clear 55 12.8 36 2.2 49 49 NW 6 9 30.34 1027 10 16 N/A
7:53 pm 19:53 Clear 53 11.7 35 1.7 51 51 NW 3 6 30.34 1027 10 16 N/A
8:53 pm 20:53 Clear 52 11.1 34 1.1 50 50 NW 7 11 30.34 1027 10 16 N/A
9:53 pm 21:53 Clear 51 10.6 34 1.1 52 52 N N/A 30.35 1028 10 16 N/A
10:53 pm 22:53 Clear 52 11.1 33 0.6 49 49 N 5 7 30.35 1028 10 16 N/A
11:53 pm 23:53 Clear 47 8.3 35 1.7 63 63 NNW 6 9 30.34 1028 10 16 N/A

Powered by AerisWeather